Regional Weather Roundup
Issued by NWS

Home | Current Version | Previous Version | Text Only | Print | Product List | Glossary On
Versions: 1 2 3 4 5 6 7 8 9 10 11 12 13 14 15 16 17 18 19 20 21 22 23 24 25 26 27 28 29 30 31 32 33 34 35 36 37 38 39 40 41 42 43 44 45 46 47 48 49 50
000
ASUS43 KMKX 231100
RWRWI

WISCONSIN REGIONAL WEATHER ROUNDUP
NATIONAL WEATHER SERVICE MILWAUKEE/SULLIVAN WI
600 AM CDT THU OCT 23 2014

NOTE: "FAIR" INDICATES FEW OR NO CLOUDS BELOW 12,000 FEET WITH NO
SIGNIFICANT WEATHER AND/OR OBSTRUCTIONS TO VISIBILITY.

WIZ001-002-006>008-014>016-023>028-231200-
NORTHWEST WISCONSIN

CITY           SKY/WX    TMP DP  RH WIND       PRES   REMARKS
SUPERIOR ARPT  LGT RAIN  48  46  91 SW3       29.98R
ASHLAND        CLOUDY    51  42  71 S6        30.01S
HAYWARD        LGT RAIN  47  44  90 S7        30.01S
SIREN          LGT RAIN  48  47  95 S7        30.00S
CUMBERLAND     RAIN      46  41  81 S7        30.01F
RICE LAKE      CLOUDY    47  43  85 SE8       30.04S
CHETEK         CLOUDY    46  44  91 SE8       30.03F
LADYSMITH      LGT RAIN  47  43  87 SE7       30.06F
EAU CLAIRE     CLOUDY    48  43  82 S6        30.04F
MENOMONIE      CLOUDY    49  45  86 SE6       30.03F
NEW RICHMOND   CLOUDY    49  47  95 S7        30.01S
OSCEOLA        CLOUDY    49  49 100 SE6       30.02S
$$

WIZ003>005-009-010-017-018-231200-
NORTH CENTRAL WISCONSIN

CITY           SKY/WX    TMP DP  RH WIND       PRES   REMARKS
MANITOWISH WTR CLOUDY    45  38  76 S7        30.05F
ARBOR VITAE    CLOUDY    46  38  74 S10       30.07S
WOODRUFF       CLOUDY    46  38  74 S10       30.07S
RHINELANDER    LGT RAIN  44  36  73 S8        30.09F
EAGLE RIVER    CLOUDY    44  35  70 S5        30.08F
LAND O LAKES   MOCLDY    45  37  73 S7        30.08F
PHILLIPS       CLOUDY    44  40  88 S8        30.05F
TOMAHAWK       LGT RAIN  41  39  91 CALM      30.10F
MEDFORD        CLOUDY    41  39  93 SE7       30.08F
MERRILL        HVY RAIN  41  40  95 S6        30.12S
$$

WIZ029-030-035-036-043>047-231200-
CENTRAL WISCONSIN

CITY           SKY/WX    TMP DP  RH WIND       PRES   REMARKS
WAUSAU         LGT RAIN  42  39  89 SE7       30.11F
MOSINEE        LGT RAIN  39  39 100 SE6       30.13F WCI  35
MARSHFIELD     CLOUDY    43  39  86 SE9       30.09F
STEVENS POINT  CLOUDY    39  36  87 S6        30.14F WCI  35
WAUPACA        CLEAR     34  33  96 CALM      30.17F FOG
WAUTOMA        NOT AVBL
WISC RAPIDS    LGT RAIN  41  38  89 S6        30.14F FOG
CAMP DOUGLAS   NOT AVBL
$$

WIZ011>013-019>022-031-037>040-048>050-231200-
NORTHEAST WISCONSIN

CITY           SKY/WX    TMP DP  RH WIND       PRES   REMARKS
ANTIGO         CLOUDY    37  36  98 S9        30.13S FOG     WCI  30
SHAWANO        CLEAR     35  34  94 CALM      30.17F FOG
OCONTO         MOCLDY    31  31 100 CALM      30.18F VSB 1
STURGEON BAY   PTCLDY    41  36  81 S7        30.19F
GREEN BAY      PTCLDY    39  36  89 S7        30.18F WCI  34
MANITOWOC      NOT AVBL
APPLETON       PTCLDY    37  34  87 S7        30.18S WCI  32
CLINTONVILLE   CLEAR     30  30 100 CALM      30.16F
OSHKOSH        CLEAR     32  31  96 S8        30.17F WCI  25
$$

WIZ032>034-041-042-053>061-231200-
SOUTHWEST WISCONSIN

CITY           SKY/WX    TMP DP  RH WIND       PRES   REMARKS
LA CROSSE      LGT RAIN  50  45  83 S10       30.08S
SPARTA         CLOUDY    51  37  58 S8        30.10S
VIROQUA        CLOUDY    48  38  70 S9        30.10S
BOSCOBEL       CLOUDY    49  37  63 CALM      30.14S
PRAIRIE DU CHI CLOUDY    51  37  59 SE6       30.12S
PLATTEVILLE    CLOUDY    40  37  86 SE5       30.16S
$$

WIZ056-057-062-063-064-067-068-231200-
SOUTH CENTRAL WISCONSIN

CITY           SKY/WX    TMP DP  RH WIND       PRES   REMARKS
REEDSBURG      CLOUDY    45  36  71 S3        30.14S
BARABOO/DELLS  CLOUDY    42  35  75 S9        30.14F
LONE ROCK      NOT AVBL
MINERAL POINT  CLOUDY    43  36  75 SE8       30.15S
MADISON        MOCLDY    38  34  85 S6        30.19F WCI  33
MIDDLETON      PTCLDY    40  35  80 S7        30.18F
WATERTOWN      PTCLDY    35  35 100 CALM      30.19S
MONROE         PTCLDY    37  36  93 S8        30.18S WCI  31
JANESVILLE     PTCLDY    34  32  93 E3        30.18S
$$

WIZ051-052-058>065-066-070>072-231200-
SOUTHEAST WISCONSIN

CITY           SKY/WX    TMP DP  RH WIND       PRES   REMARKS
MILWAUKEE      PTCLDY    39  35  86 S5        30.21S
WAUKESHA       CLEAR     36  34  93 SE5       30.21S FOG     WCI  32
MILWAUKEE/TIMM PTCLDY    32  28  86 S3        30.22R
RACINE         CLEAR     39  36  89 S5        30.23R
BURLINGTON     FOG       26  26  99 CALM      30.21R VSB 1/4
KENOSHA        CLEAR     36  34  92 S5        30.21S FOG     WCI  32
FOND DU LAC    PTCLDY    36  31  82 S6        30.18F WCI  31
SHEBOYGAN      MOCLDY    31  28  89 CALM      30.20S
WEST BEND      PTCLDY    32  32 100 CALM      30.20S FOG
JUNEAU         PTCLDY    37  34  91 SE6       30.20F WCI  32
$$

LSZ147-162-231200-
LAKE SUPERIOR

STATION/POSITION TIME  TEMP    WIND        PRES    WAVE
                       AIR SEA DIR/SP/G            HT/PER
                 (UTC) (F)     (DEG/KT/KT) (MB)    (FT/S)
W MID LAKE BUOY  0950   48 46  150/ 12/ 14 1017.1F   2/ 3
DEVILS ISLAND    1000   51     180/  9/ 12 1016.2F
PORT WING        1000   53     180/  7/ 12 1015.2F
SAXON HARBOR     1000   53     180/  7/ 12 1016.3S
$$

LMZ867-665-643>646-231200-
LAKE MICHIGAN

STATION/POSITION TIME  TEMP    WIND        PRES    WAVE
                       AIR SEA DIR/SP/G            HT/PER
                 (UTC) (F)     (DEG/KT/KT) (MB)    (FT/S)
CHAMBERS ISLAND  1000   46     180/  6/ 16 1022.4S
N MID LAKE BUOY  0950   47 51  200/ 16/ 19 1022.9F   2/ 4
NORTHPORT PIER   1000   46     170/  4/  7 1022.4S
SISTER BAY       1027             CALM       N/A
ALGOMA LAKESHORE 0911          230/ 10/ 11   N/A
KEWAUNEE LAKESHO 1000   44     210/  5/  7 1021.5F
SHEBOYGAN LAKESH 1000   41 51  230/  6/  7 1023.4F
PORT WASHINGTON  1040   40     250/  5/  6 1023.4F
ATWATER BUOY     1000   47     200/ 10/ 12 1023.7F
MILWAUKEE LAKESH 1000   44     220/  9/ 10   N/A
S MID LAKE BUOY  0950   50 54  180/ 12/ 14 1023.7F   2/ 4
KENOSHA   LAKESH 1000   44     200/  7/  8 1023.0S
$$

TC  - TEMPERATURE IN CELSIUS
VSB - VISIBILITY IN STATUTE MILES
WCI - WIND CHILL INDEX
HX  - HEAT INDEX




USA.gov is the U.S. government's official web portal to all federal, state and local government web resources and services.